Location: Newark
(35.2672°N, 80.7344°W)
Time: 11:21:50
(UTC+00:00)

A-11 Canister half - Pass Details

Date: 01 February 2020
Orbit: 1524 x 1684 km, 47.3° (Epoch: 25 February)

Event Time Altitude Azimuth Distance (km) Brightness Sun altitude
Rises 23:46:13 0° 285° (WNW) 4,677 12.7 -11.7°
Reaches altitude 10° 23:49:33 10° 293° (WNW) 3,704 11.9 -12.3°
Maximum altitude 23:58:11 40° 1° (N) 2,166 9.7 -14.0°
Enters shadow 00:04:55 17° 61° (ENE) 3,223 10.1 -15.4°
